Regional Weather Roundup
Issued by NWS

Home | Current Version | Previous Version | Graphics & Text | Print | Product List | Glossary On
Versions: 1 2 3 4 5 6 7 8 9 10 11 12 13 14 15 16 17 18 19 20 21 22 23 24 25 26 27 28 29 30 31 32 33 34 35 36 37 38 39 40 41 42 43 44 45 46 47 48 49 50
000
ASUS43 KMKX 231300
RWRWI

WISCONSIN REGIONAL WEATHER ROUNDUP
NATIONAL WEATHER SERVICE MILWAUKEE/SULLIVAN WI
800 AM CDT SUN JUL 23 2017

NOTE: "FAIR" INDICATES FEW OR NO CLOUDS BELOW 12,000 FEET WITH NO
SIGNIFICANT WEATHER AND/OR OBSTRUCTIONS TO VISIBILITY.

WIZ001-002-006>008-014>016-023>028-231400-
NORTHWEST WISCONSIN

CITY           SKY/WX    TMP DP  RH WIND       PRES   REMARKS
SUPERIOR ARPT  NOT AVBL
ASHLAND        CLOUDY    58  56  93 N6        29.88R
HAYWARD        CLOUDY    58  55  90 N6        29.88R
SIREN          SUNNY     62  58  86 NW5       29.88R
CUMBERLAND     SUNNY     63  55  77 N12       29.87R
RICE LAKE      SUNNY     65  58  78 NW7       29.88R
CHETEK         SUNNY     66  59  78 NW5       29.85S
LADYSMITH      MOSUNNY   64  59  86 NW8       29.86R
EAU CLAIRE     NOT AVBL
MENOMONIE      CLOUDY    67  60  78 W5        29.85R
NEW RICHMOND   SUNNY     66  59  78 N6        29.88R
OSCEOLA        SUNNY     66  59  78 NW8       29.91R
$$

WIZ003>005-009-010-017-018-231400-
NORTH CENTRAL WISCONSIN

CITY           SKY/WX    TMP DP  RH WIND       PRES   REMARKS
MANITOWISH WTR CLOUDY    58  58 100 NW6       29.85R
ARBOR VITAE    PTSUNNY   62  60  94 N9        29.84R
WOODRUFF       PTSUNNY   62  60  94 N9        29.84R
RHINELANDER    CLOUDY    65  64  97 CALM      29.84S
EAGLE RIVER    CLOUDY    61  61 100 NW8       29.83R
LAND O LAKES   CLOUDY    60  60 100 N6        29.85R FOG
PHILLIPS       CLOUDY    59  59 100 N5        29.85R
TOMAHAWK         N/A     60  60  97 NW3       29.84R
MEDFORD        CLOUDY    65  59  83 NW6       29.84R
MERRILL        SUNNY     65  63  91 NW3       29.83S
$$

WIZ029-030-035-036-043>047-231400-
CENTRAL WISCONSIN

CITY           SKY/WX    TMP DP  RH WIND       PRES   REMARKS
WAUSAU         CLOUDY    67  61  81 NW8       29.81R
MOSINEE        PTSUNNY   66  64  94 NW6       29.83R
MARSHFIELD     CLOUDY    67  59  75 NW6       29.82S
STEVENS POINT  CLOUDY    65  64  96 CALM      29.82S
WAUPACA        PTSUNNY   71  69  96 W7        29.80R
WAUTOMA        CLOUDY    69  66  90 NW7       29.82R
WISC RAPIDS    CLOUDY    65  64  97 CALM      29.83S
CAMP DOUGLAS   NOT AVBL
$$

WIZ011>013-019>022-031-037>040-048>050-231400-
NORTHEAST WISCONSIN

CITY           SKY/WX    TMP DP  RH WIND       PRES   REMARKS
ANTIGO         SUNNY     65  63  92 NW5       29.82R
SHAWANO        CLOUDY    68  67  96 W6        29.77S
OCONTO         CLOUDY    66  65  99 CALM      29.77R VSB 3/4
STURGEON BAY     N/A     67  67 100 W5        29.77S FOG
GREEN BAY      CLOUDY    68  68 100 SW7       29.77S
MANITOWOC      MOSUNNY   72  68  88 SW7       29.77S
APPLETON       PTSUNNY   70  70 100 W10       29.78S FOG
CLINTONVILLE   CLOUDY    68  64  88 W6        29.79R
OSHKOSH        SUNNY     71  68  90 W8        29.79S
$$

WIZ032>034-041-042-053>061-231400-
SOUTHWEST WISCONSIN

CITY           SKY/WX    TMP DP  RH WIND       PRES   REMARKS
LA CROSSE      CLOUDY    70  68  93 CALM      29.85R
SPARTA         FOG       61  61 100 CALM      29.85S VSB 1/4
VIROQUA        CLOUDY    67  67 100 W3        29.86S
BOSCOBEL       CLOUDY    69  68  96 CALM      29.84R FOG
PRAIRIE DU CHI CLOUDY    70  69  96 NW5       29.84R FOG
PLATTEVILLE    CLOUDY    70  70 100 CALM      29.84F VSB<1/4
$$

WIZ056-057-062-063-064-067-068-231400-
SOUTH CENTRAL WISCONSIN

CITY           SKY/WX    TMP DP  RH WIND       PRES   REMARKS
REEDSBURG      MOSUNNY   67  67 100 CALM      29.82F
BARABOO/DELLS  MOSUNNY   68  66  93 SW3       29.83S
LONE ROCK      MOSUNNY   69  67  93 W5        29.83S
MINERAL POINT  MOSUNNY   70  70 100 NW3       29.85S
MADISON        MOSUNNY   73  67  81 VRB3      29.81S
MIDDLETON      SUNNY     72  72 100 W3        29.83S
WATERTOWN      SUNNY     71  71 100 CALM      29.81S FOG
MONROE         SUNNY     72  68  88 W6        29.83S
JANESVILLE     MOSUNNY   75  73  94 W5        29.81R
$$

WIZ051-052-058>065-066-070>072-231400-
SOUTHEAST WISCONSIN

CITY           SKY/WX    TMP DP  RH WIND       PRES   REMARKS
MILWAUKEE      PTSUNNY   73  71  93 S7        29.80S
WAUKESHA       MOSUNNY   70  68  94 CALM      29.82S FOG
MILWAUKEE/TIMM SUNNY     72  66  83 S3        29.81S
RACINE         CLOUDY    72  71  97 CALM      29.82R FOG
KENOSHA        CLOUDY    72  70  93 SW3       29.81S
FOND DU LAC    MOSUNNY   73  67  81 W7        29.80S
SHEBOYGAN      MOSUNNY   71  70  96 SW7       29.78S
WEST BEND      SUNNY     70  68  94 SW5       29.80S
JUNEAU         SUNNY     70  69  95 CALM      29.83R
$$

LSZ147-162-231400-
LAKE SUPERIOR

STATION/POSITION TIME  TEMP    WIND        PRES    WAVE
                       AIR SEA DIR/SP/G            HT/PER
                 (UTC) (F)     (DEG/KT/KT) (MB)    (FT/S)
W MID LAKE BUOY  1150   50 47  360/ 10/ 12 1010.9R   2/ 5
DEVILS ISLAND    1200   55      10/  9/ 10 1011.5R
SAXON HARBOR     1240   58      20/  9/ 10 1011.2R
$$

LMZ867-665-643>646-231400-
LAKE MICHIGAN

STATION/POSITION TIME  TEMP    WIND        PRES    WAVE
                       AIR SEA DIR/SP/G            HT/PER
                 (UTC) (F)     (DEG/KT/KT) (MB)    (FT/S)
CHAMBERS ISLAND  1240   68     300/  6/ 10 1007.5R
S GREEN BAY BUOY 1230   69 73  260/  8/ 10 1007.7R
N MID LAKE BUOY  1150   67 68  210/  6/  8 1007.7F   0
NORTHPORT PIER   1240   69     260/  2/  5 1007.8R
KEWAUNEE LAKESHO 1230   70     280/  4/  8 1006.9F
SHEBOYGAN LAKESH 1200   68     220/ 11/ 12 1007.8R
PORT WASHINGTON  1230   75     250/  4/  7 1009.5S
ATWATER BUOY     1109   70 68  150/  6/  6 1009.3
MILWAUKEE LAKESH 1230   70     170/  7/  7   N/A
S MID LAKE BUOY  1150   69 70   70/  8/ 10 1009.0S   0
KENOSHA   LAKESH 1200   71     360/  2/  6 1009.1
$$

TC  - TEMPERATURE IN CELSIUS
VSB - VISIBILITY IN STATUTE MILES
WCI - WIND CHILL INDEX
HX  - HEAT INDEX





USA.gov is the U.S. government's official web portal to all federal, state and local government web resources and services.